Willmar, MN

6:32 PM CDT on May 22, 2017 (GMT -0500)
Willmar

Weather History for KBDH - February, 2013

Change the Weather History Date:

Tuesday, February 19, 2013

  Actual Average (KBBB) Record (KBBB)
Temperature  
Mean Temperature -2 °F -  
Max Temperature 3 °F 27 °F 60 °F (2017)
Min Temperature -7 °F 9 °F -21 °F (1959)
Degree Days  
Heating Degree Days 67    
Moisture  
Dew Point -14 °F    
Average Humidity 54    
Maximum Humidity 61    
Minimum Humidity 47    
Precipitation  
Precipitation 0.00 in - - ()
Sea Level Pressure  
Sea Level Pressure 30.18 in    
Wind  
Wind Speed 24 mph (NW)    
Max Wind Speed 34 mph    
Max Gust Speed 39 mph    
Visibility 5 miles    
Events Snow    
Averages and records for this station are not official NWS values.
T = Trace of Precipitation, MM = Missing Value Source: NWS Daily Summary

Daily Weather History Graph

Daily Weather History Graph

Search for Another Location

Airport or City:

Trip Planner

Search our weather history database for the weather conditions in past years. The results will help you decide how hot, cold, wet, or windy it might be!

Date:

Astronomy

Feb. 19, 2013 Rise Set
Actual Time 7:14 AM CST 5:54 PM CST
Civil Twilight 6:44 AM CST 6:24 PM CST
Nautical Twilight 6:10 AM CST 6:58 PM CST
Astronomical Twilight 5:36 AM CST 7:32 PM CST
Moon 12:18 PM CST (2/19) 2:55 AM CST (2/19)
Length of Visible Light 11h 39m
Length of Day
10h 39m
Waxing Gibbous, 67% of the Moon is Illuminated
Feb 19
Waxing Gibbous
Feb 25
Full
Mar 4
Last Quarter
Mar 11
New
Mar 19
First Quarter

Hourly Weather History & Observations

Time (CST) Temp. Windchill Dew Point Humidity Pressure Visibility Wind Dir Wind Speed Gust Speed Precip Events Conditions
12:15 AM 3.2 °F -19.9 °F -9.4 °F 56% 29.95 in 1.5 mi NW 25.3 mph 32.2 mph N/A Snow Light Snow
12:35 AM 3.2 °F -20.7 °F -9.4 °F 56% 29.95 in 1.2 mi NW 27.6 mph 33.4 mph N/A Snow Light Snow
12:55 AM 3.2 °F -19.9 °F -9.4 °F 56% 29.96 in 2.0 mi NW 25.3 mph 31.1 mph N/A   Haze
1:15 AM 3.2 °F -19.9 °F -9.4 °F 56% 29.96 in 2.5 mi NW 25.3 mph - N/A   Haze
1:35 AM 3.2 °F -19.9 °F -9.4 °F 56% 29.97 in 3.0 mi NW 25.3 mph 29.9 mph N/A   Haze
1:55 AM 3.2 °F -19.5 °F -7.6 °F 61% 29.98 in 2.5 mi NW 24.2 mph 34.5 mph N/A   Haze
2:15 AM 3.2 °F -20.7 °F -7.6 °F 61% 29.98 in 1.8 mi NW 27.6 mph 34.5 mph N/A   Haze
2:35 AM 3.2 °F -21.1 °F -7.6 °F 61% 29.99 in 1.8 mi NW 28.8 mph 33.4 mph N/A   Haze
2:55 AM 3.2 °F -21.1 °F -7.6 °F 61% 29.99 in 1.2 mi NW 28.8 mph 35.7 mph N/A   Haze
3:15 AM 3.2 °F -19.9 °F -7.6 °F 61% 30.00 in 1.2 mi NW 25.3 mph 34.5 mph N/A Snow Light Snow
3:35 AM 3.2 °F -21.1 °F -9.4 °F 56% 30.01 in 1.2 mi NW 28.8 mph 36.8 mph N/A Snow Light Snow
3:55 AM 1.4 °F -22.7 °F -9.4 °F 61% 30.01 in 1.0 mi NW 26.5 mph 38.0 mph N/A Snow Light Snow
4:15 AM 1.4 °F -23.2 °F -9.4 °F 61% 30.02 in 1.5 mi NW 27.6 mph 34.5 mph N/A   Haze
4:35 AM 1.4 °F -23.2 °F -9.4 °F 61% 30.03 in 1.5 mi NW 27.6 mph 38.0 mph N/A   Haze
4:55 AM 1.4 °F -22.3 °F -9.4 °F 61% 30.03 in 1.8 mi NW 25.3 mph 33.4 mph N/A   Haze
5:15 AM 1.4 °F -23.5 °F -9.4 °F 61% 30.04 in 1.2 mi NW 28.8 mph 36.8 mph N/A   Haze
5:35 AM 1.4 °F -23.9 °F -11.2 °F 56% 30.05 in 1.5 mi NW 29.9 mph 36.8 mph N/A   Haze
5:55 AM -0.4 °F -26.4 °F -11.2 °F 60% 30.06 in 1.2 mi NW 29.9 mph 39.1 mph N/A   Haze
6:15 AM -0.4 °F -27.1 °F -13.0 °F 55% 30.07 in 1.5 mi NW 32.2 mph 39.1 mph N/A   Haze
6:35 AM -2.2 °F -29.2 °F -14.8 °F 55% 30.08 in 0.8 mi NW 31.1 mph 38.0 mph N/A Snow Light Snow
6:55 AM -2.2 °F -28.4 °F -14.8 °F 55% 30.09 in 1.2 mi NW 28.8 mph 34.5 mph N/A   Haze
7:15 AM -2.2 °F -30.3 °F -14.8 °F 55% 30.10 in 1.0 mi NW 34.5 mph 39.1 mph N/A   Haze
7:35 AM -2.2 °F -27.1 °F -14.8 °F 55% 30.12 in 0.5 mi NW 25.3 mph 35.7 mph N/A Snow Light Snow
7:55 AM -4.0 °F -30.0 °F -16.6 °F 55% 30.13 in 1.2 mi NW 26.5 mph 34.5 mph N/A   Haze
8:15 AM -2.2 °F -28.0 °F -14.8 °F 55% 30.14 in 1.5 mi NW 27.6 mph 31.1 mph N/A   Haze
8:35 AM -2.2 °F -28.4 °F -14.8 °F 55% 30.14 in 1.0 mi NW 28.8 mph 34.5 mph N/A   Haze
8:55 AM -2.2 °F -28.0 °F -14.8 °F 55% 30.15 in 1.2 mi NW 27.6 mph 32.2 mph N/A   Haze
9:15 AM -2.2 °F -29.2 °F -14.8 °F 55% 30.16 in 3.0 mi NW 31.1 mph 35.7 mph N/A   Haze
9:35 AM -2.2 °F -26.7 °F -16.6 °F 50% 30.18 in 1.2 mi NW 24.2 mph 33.4 mph N/A   Haze
9:55 AM -2.2 °F -28.0 °F -14.8 °F 55% 30.18 in 1.8 mi NW 27.6 mph 31.1 mph N/A   Haze
10:15 AM -2.2 °F -28.0 °F -16.6 °F 50% 30.19 in 2.5 mi NW 27.6 mph 31.1 mph N/A   Haze
10:35 AM -2.2 °F -26.7 °F -14.8 °F 55% 30.19 in 2.0 mi NW 24.2 mph 32.2 mph N/A   Haze
10:55 AM -2.2 °F -27.6 °F -14.8 °F 55% 30.19 in 2.0 mi NW 26.5 mph 33.4 mph N/A   Haze
11:15 AM -2.2 °F -26.7 °F -14.8 °F 55% 30.20 in 1.2 mi WNW 24.2 mph 31.1 mph N/A   Haze
11:35 AM -0.4 °F -25.2 °F -14.8 °F 51% 30.21 in 1.2 mi NW 26.5 mph 31.1 mph N/A   Haze
11:55 AM -2.2 °F -25.7 °F -14.8 °F 55% 30.22 in 2.0 mi NW 21.9 mph 31.1 mph N/A   Haze
12:15 PM -0.4 °F -24.7 °F -14.8 °F 51% 30.23 in 1.8 mi NW 25.3 mph 31.1 mph N/A   Haze
12:35 PM -0.4 °F -24.7 °F -14.8 °F 51% 30.22 in 1.2 mi NW 25.3 mph 34.5 mph N/A   Haze
12:55 PM -0.4 °F -24.3 °F -14.8 °F 51% 30.22 in 1.2 mi NW 24.2 mph 34.5 mph N/A   Haze
1:15 PM -0.4 °F -24.3 °F -14.8 °F 51% 30.22 in 4.0 mi NW 24.2 mph 34.5 mph N/A   Haze
1:35 PM -0.4 °F -26.0 °F -14.8 °F 51% 30.22 in 3.0 mi NW 28.8 mph 32.2 mph N/A   Haze
1:55 PM -0.4 °F -24.7 °F -14.8 °F 51% 30.23 in 7.0 mi NW 25.3 mph 31.1 mph N/A   Mostly Cloudy
2:15 PM -0.4 °F -23.3 °F -14.8 °F 51% 30.23 in 5.0 mi WNW 21.9 mph 29.9 mph N/A   Haze
2:35 PM -0.4 °F -23.8 °F -14.8 °F 51% 30.23 in 7.0 mi NW 23.0 mph 28.8 mph N/A   Overcast
2:55 PM 1.4 °F -21.4 °F -13.0 °F 51% 30.24 in 7.0 mi NW 23.0 mph 27.6 mph N/A   Overcast
3:15 PM 1.4 °F -18.8 °F -13.0 °F 51% 30.25 in 7.0 mi NW 17.3 mph - N/A   Overcast
3:35 PM 1.4 °F -21.4 °F -14.8 °F 47% 30.27 in 10.0 mi NW 23.0 mph 27.6 mph N/A   Overcast
3:55 PM 1.4 °F -21.9 °F -14.8 °F 47% 30.27 in 10.0 mi NW 24.2 mph - N/A   Overcast
4:15 PM -0.4 °F -24.3 °F -14.8 °F 51% 30.28 in 10.0 mi NW 24.2 mph 27.6 mph N/A   Overcast
4:35 PM -0.4 °F -23.3 °F -14.8 °F 51% 30.28 in 10.0 mi NW 21.9 mph - N/A   Overcast
4:55 PM -0.4 °F -21.7 °F -14.8 °F 51% 30.29 in 10.0 mi NW 18.4 mph - N/A   Overcast
5:15 PM -0.4 °F -21.7 °F -14.8 °F 51% 30.29 in 10.0 mi NW 18.4 mph - N/A   Mostly Cloudy
6:35 PM -2.2 °F -24.1 °F -16.6 °F 50% 30.31 in 10.0 mi NW 18.4 mph - N/A   Clear
6:55 PM -2.2 °F -22.9 °F -16.6 °F 50% 30.32 in 10.0 mi NW 16.1 mph 21.9 mph N/A   Clear
7:15 PM -2.2 °F -21.5 °F -16.6 °F 50% 30.32 in 10.0 mi NW 13.8 mph - N/A   Clear
7:35 PM -4.0 °F -22.1 °F -16.6 °F 55% 30.33 in 10.0 mi NW 11.5 mph - N/A   Clear
7:55 PM -4.0 °F -20.2 °F -16.6 °F 55% 30.34 in 10.0 mi NW 9.2 mph - N/A   Clear
8:15 PM -4.0 °F -21.2 °F -18.4 °F 50% 30.33 in 10.0 mi NNW 10.4 mph - N/A   Clear
8:35 PM -4.0 °F -19.0 °F -18.4 °F 50% 30.34 in 10.0 mi WNW 8.1 mph - N/A   Clear
8:55 PM -4.0 °F -19.0 °F -18.4 °F 50% 30.34 in 10.0 mi NNW 8.1 mph - N/A   Clear
9:15 PM -5.8 °F -23.4 °F -18.4 °F 55% 30.34 in 10.0 mi NW 10.4 mph - N/A   Clear
9:35 PM -5.8 °F -19.9 °F -18.4 °F 55% 30.36 in 10.0 mi WNW 6.9 mph - N/A   Clear
9:55 PM -5.8 °F -21.2 °F -18.4 °F 55% 30.36 in 10.0 mi WNW 8.1 mph - N/A   Clear
10:15 PM -5.8 °F -19.9 °F -18.4 °F 55% 30.36 in 10.0 mi WNW 6.9 mph - N/A   Clear
10:35 PM -5.8 °F -23.4 °F -18.4 °F 55% 30.37 in 10.0 mi WNW 10.4 mph - N/A   Clear
10:55 PM -7.6 °F -25.7 °F -18.4 °F 59% 30.37 in 10.0 mi NW 10.4 mph - N/A   Clear
11:15 PM -7.6 °F -24.6 °F -20.2 °F 54% 30.38 in 10.0 mi WNW 9.2 mph - N/A   Clear
11:35 PM -7.6 °F -24.6 °F -20.2 °F 54% 30.40 in 10.0 mi WNW 9.2 mph - N/A   Clear
11:55 PM -7.6 °F -24.6 °F -20.2 °F 54% 30.39 in 10.0 mi WNW 9.2 mph - N/A   Clear